Location: Unspecified
(0.0000°N, 0.0000°E)
Time: 18:51:19
(UTC+00:00)

Vanguard 2 - Pass Details

Date: 28 November 2019
Orbit: 553 x 2938 km, 32.9° (Epoch: 06 December)

Event Time Altitude Azimuth Distance (km) Brightness Sun altitude
Rises 15:32:50 0° 263° (W) 2,729 11.4 31.2°
Reaches altitude 10° 15:36:58 10° 219° (SW) 1,849 10.7 30.3°
Maximum altitude 15:37:46 10° 208° (SSW) 1,842 10.4 30.1°
Drops below altitude 10° 15:38:35 10° 196° (SSW) 1,902 10.2 29.9°
Sets 15:43:15 0° 155° (SSE) 3,098 10.6 28.8°
